User: anonymous   Login
Location: Caltech
(34.1382°N, 118.1253°W)
Time: 01:27:25
(UTC-08:00)
Language:

Oscar 10/S400 - Orbit

View from above orbital plane
View from above orbital plane
View from above satellite
View from above satellite

Ground track
Ground track

The orbit data is extracted from the following two-line orbital elements,

1 14129U 83058B   17052.64590524  .00000190  00000-0  00000+0 0  9990
2 14129  26.9032  52.8817 6022332 274.5524 269.5280  2.05866176225449
Epoch (UTC): 21 February 2017 15:30:06
Eccentricity: 0.6022332
inclination: 26.9032°
perigee height: 4004 km
apogee height: 35443 km
right ascension of ascending node: 52.8817°
argument of perigee: 274.5524°
revolutions per day: 2.05866176
mean anomaly at epoch: 269.5280°
orbit number at epoch: 22544

The dashed part of the orbit path shows where the satellite is in the earth's shadow,  

DLR